Regional Weather Roundup
Issued by NWS Wakefield, VA

Home | Current Version | Previous Version | Text Only | Print | Product List | Glossary Off
Versions: 1 2 3 4 5 6 7 8 9 10 11 12 13 14 15 16 17 18 19 20 21 22 23 24 25 26 27 28 29 30 31 32 33 34 35 36 37 38 39 40 41 42 43 44 45 46 47 48 49 50

000
ASUS41 KAKQ 022115
RWRAKQ

REGIONAL WEATHER ROUNDUP
NATIONAL WEATHER SERVICE WAKEFIELD VA
500 PM EDT SUN AUG 02 2015

Note: "fair" indicates few or no clouds below 12,000 feet with no
significant weather and/or obstructions to visibility. * = Denotes
station may not report precipitation (e.g., rain,snow,etc.),
thunder or fog.

VAZ042-051-052>054-056-022200-
NORTHERN VIRGINIA

CITY           SKY/WX    TMP DP  RH WIND       PRES   REMARKS
WASH NATIONAL  PTSUNNY   87  58  37 SW13      29.93S
DULLES         PTSUNNY   86  55  34 CALM      29.94S
FORT BELVOIR   NOT AVBL
QUANTICO       NOT AVBL
FREDERICKSBRG* CLOUDY    85  64  48 W6        29.94F
STAFFORD*      CLOUDY    83  62  49 W3        29.99F
WARRENTON      PTSUNNY   83  64  51 S5        29.95S
CULPEPER*      PTSUNNY   81  62  51 S5        29.96S
MANASSAS*      SUNNY     84  61  45 SW5       29.94S
LEESBURG*      MOSUNNY   88  61  40 SW9       29.95S
WINCHESTER     MOSUNNY   88  55  33 S5        29.94F
FRONT ROYAL*   FAIR      84  59  42 SW5       29.94F
LURAY*         FAIR      88  54  31 S7        29.96S
$$

VAZ048-049-060>072-079>083-022200-
CENTRAL AND SOUTH CENTRAL VIRGINIA

CITY           SKY/WX    TMP DP  RH WIND       PRES   REMARKS
RICHMOND       PTSUNNY   89  60  37 N8        29.94S
CHESTERFIELD*  FAIR      90  55  31 NW9       29.96S
PETERSBURG*    MOSUNNY   89  67  48 NW6       29.95S
HANOVER        MOSUNNY   86  59  39 NW7       29.96F
TAPPAHANNOCK*  MOSUNNY   86  58  38 CALM      29.95F
QUINTON*       FAIR      87  62  42 N3        29.93S
CHARLOTTSVILLE CLOUDY    80  61  52 SW3       29.98S
GORDONSVILLE*  FAIR      81  64  57 SW6       29.97S
ORANGE*        CLOUDY    84  63  48 S7        29.98F
LOUISA*        CLOUDY    86  61  42 SW6       29.96F
BUMPASS*       FAIR      80  62  53 CALM      29.97S
FARMVILLE*     PTSUNNY   85  52  31 NW3       29.96S
CREWE*         FAIR     N/A N/A N/A NW6       29.96S
FORT PICKETT*  MOCLDY    85  58  39 NE6       29.96S
CHASE CITY*    FAIR      88  64  45 NE5       29.97R
CLARKSVILLE*   FAIR      86  57  37 CALM      29.96S
SOUTH HILL*    SUNNY     84  61  44 S3        30.01S
LAWRENCEVILLE* FAIR      86  63  45 CALM      29.95S
EMPORIA*       MOSUNNY   86  61  42 N3        29.96R
$$

VAZ088>098-022200-
SOUTHEAST VIRGINIA

CITY           SKY/WX    TMP DP  RH WIND       PRES   REMARKS
NORFOLK        PTSUNNY   83  71  67 NE7       29.93R
VIRGINIA BEACH PTSUNNY   86  73  65 NE7       29.92R
NORFOLK NAVAL  PTSUNNY   85  69  58 NE8       29.95R
WEST POINT*    CLOUDY    87  64  44 E3        29.95S
SALUDA*        FAIR      83  63  50 CALM      29.94R
NEWPORT NEWS   PTSUNNY   85  66  53 NE7       29.94R
LANGLEY AFB    NOT AVBL
FORT EUSTIS    PTSUNNY   86  61  42 VRB5      29.92R
WILLIAMSBURG*  CLOUDY    84  73  70 CALM      29.95S
HR EXEC AP*    FAIR      88  72  58 NE5       29.95R
FRANKLIN*      MOSUNNY   88  68  51 NW6       29.93S
WAKEFIELD      PTSUNNY   87  67  51 N6        29.94S
$$

VAZ020-022-025-037-045-022200-
WEST CENTRAL AND SOUTHWEST VIRGINIA

CITY           SKY/WX    TMP DP  RH WIND       PRES   REMARKS
STAUNTON*      MOSUNNY   87  53  31 S7        30.01S
WAYNESBORO*    MOCLDY    79  60  52 S7        30.01S
HOT SPRINGS VA MOSUNNY   71  54  55 S5        30.12S
LYNCHBURG      PTSUNNY   81  61  50 N5        30.01S
DANVILLE       MOSUNNY   86  56  35 VRB5      29.97F
SOUTH BOSTON*  FAIR      86  60  40 NE3       29.97R
MARTINSVILLE   MOSUNNY   87  54  32 NE6       30.01S
ROANOKE        PTSUNNY   85  54  34 SW6       30.02F
BLACKSBURG     MOSUNNY   80  55  42 CALM      30.08S
DUBLIN*          N/A     80  52  37 CALM      30.07S
MARION*        MOSUNNY   79  54  41 NE3       30.09S
HILLSVILLE*    MOSUNNY   78  53  41 W3        30.06F
RICHLANDS*     MOCLDY    78  56  47 N3        30.07S
WISE*          SUNNY     81  46  30 CALM      30.08S
ABINGDON*      SUNNY     85  44  23 E5        30.03S
$$

MDZ021>025-VAZ099-100-022200-
SOUTHERN MARYLAND AND THE DELMARVA PENINSULA

CITY           SKY/WX    TMP DP  RH WIND       PRES   REMARKS
PATUXENT RIVER PTSUNNY   85  55  35 E5        29.93S
BAY BRIDGE APT   N/A     86  54  32 S5        29.92F
LEONARDTOWN    PTSUNNY   86  61  42 SW3       29.96S
DOVER          NOT AVBL
GEORGETOWN     PTSUNNY   84  64  50 SE9       29.93S
EASTON         MOSUNNY   88  57  35 W6        29.96F
CAMBRIDGE      PTSUNNY   86  52  30 NW3       29.93S
SALISBURY      CLOUDY    82  65  56 SE5       29.93R
OCEAN CITY     CLOUDY    80  67  64 SE3       29.93S
WALLOPS ISLAND CLOUDY    81  69  67 SE6       29.94S
ACCOMACK*      CLOUDY    81  73  78 SE3       29.94R
$$

NCZ012>017-030>032-022200-
NORTH CENTRAL AND EASTERN NORTH CAROLINA

CITY           SKY/WX    TMP DP  RH WIND       PRES   REMARKS
ROANOKE RAPIDS FAIR      88  59  37 W5        29.94R
RALEIGH        MOSUNNY   90  58  33 E5        29.95S
ELIZABETH CITY CLOUDY    88  68  51 W7        29.91R
AHOSKIE*       SUNNY     88  63  42 NW3       29.93S
EDENTON*         N/A     93  60  33 SW8       29.91R
CURRITUCK*     PTSUNNY   84  72  65 NE9       29.92S
KILL DEVIL HLS SUNNY     91  70  50 S8        29.91S HX  96
MANTEO         MOSUNNY   86  74  68 S15       29.92S
CAPE HATTERAS  SUNNY     86  75  69 SW12      29.94S HX  95
TARBORO*         N/A     93  59  31 N3        29.93R
GOLDSBORO      SUNNY     96  60  30 CALM      29.89F HX  95
WASHINGTON     SUNNY     92  60  34 W5        29.92R
GREENVILLE     SUNNY     95  61  31 SW6       29.93S HX  95
NEW BERN       SUNNY     88  74  63 S14       29.94S HX  96
WILMINGTON     CLOUDY    84  73  69 S10       29.94S
$$

VAZ048-022200-
ELSEWHERE

CITY           SKY/WX    TMP DP  RH WIND       PRES   REMARKS
HARRISBURG PA  MOSUNNY   86  58  38 S9        29.89F
BALTIMORE      PTSUNNY   89  54  30 CALM      29.91F
ANNAPOLIS      MOSUNNY   83  60  45 SE13      29.91F
ANDREWS AFB    NOT AVBL
PHILADELPHIA   PTSUNNY   89  50  26 SW10      29.91F
HENDERSON NC   SUNNY     87  51  29 CALM      29.97R
GREENSBORO     MOSUNNY   89  51  27 N7        29.97S
ROCKY MOUNT    SUNNY     94  55  26 NW7       29.93R
$$

VAZ100-022200-
MARINE

STATION/POSITION TIME  TEMP    WIND        PRES    WAVE   SWELL
                       AIR SEA DIR/SP/G            HT/PER HT/PER
                 (UTC) (F)     (DEG/KT/KT) (MB)    (FT/S) (FT/S)
BRANDYWINE LGT   2000   83 78  150/  1/  1 1013.7R
CAPE MAY NJ      2000   82 77  240/  4/  4 1013.2S
LEWES DE         2000   81 74  100/  6/  7 1013.4S
15NM E FENWICK I 2050   80 81  100/  2/  2 1013.8F   2/ 8   2/ 8
OCEAN-CITY-INLET 2000   80 75  120/  5/  7 1012.8F
WACHAPREAGUE VA  2000   80 87   70/  6/  9 1013.7F
THOMAS POINT MD  2100   83 82  170/  9/ 10 1013.6
GOOSES REEF MD   2100   85 86   CALM  /  2 1014.5F
COVE POINT MD    2000   82      20/  4/  6 1014.3F
SOLOMONS ISLAND  2000      84                N/A
BISHOPS HEAD MD  2000   83 85  260/  8/  9 1012.8R
PINEY POINT MD   2000          330/  5/  5   N/A
POTOMAC MD       2100   85 84  230/  2/  4 1012.6S   0
CAMBRIDGE MD     2000   84 86  320/  7/ 10 1012.7S
LEWISETTA VA     2000   84 85  120/  3/  3 1013.5R
RAPPAHANNOCK LGT 2000          350/  9/  9 1014.0F
STINGRAY PT      2100   83 83   10/  4/  6 1013.9R   1
YORK RVR RNG VA  2000   83      40/  6/  8 1013.0F
YORKTOWN VA      2000   83 84   40/  9/  9 1013.3F
JAMESTOWN VA     2100   83 87   40/  4/  6   N/A
DOMINION TERM VA 2000   84      80/  8/ 12 1013.3F
KIPTOPEKE VA     2000      81  110/  5/ 11   N/A
CHES BAY BRIDGE  2000   80 82   50/  8/ 10 1013.0F
CAPE HENRY VA    2000   79      40/  8/  9   N/A
CHESAPEAKE LGHT  2000   78     180/ 14/ 15 1013.8F
WILLOUBY STN VA  2000   82      30/  9/ 10 1014.4F
CAPE HENRY BUOY  2028      81                N/A     2/11   2/11
1ST LANDING BUOY 2100      81              1013.4R   1/ 3
CAPE CHARLES BUO 2026      80                N/A     2/10   2/10
OFFSHORE WE BUOY 2011      85                N/A     2/13   2/13
64NM E OF VA BCH 2050   82 82  190/ 14/ 16 1012.9F   3/12   2/12
DUCK PIER NC     2000   82 81  140/ 15/ 18 1012.0F
44100 DUCK FRF   2024      82                N/A     2/ 7   2/13
44056 DUCK FRF   2011      81                N/A     2/12   2/12
OREGON INLET NC  2000   86 80  170/ 11/ 15 1013.3F
HATTERAS NC      2000   86 82  190/  6/ 11 1013.5F



USA.gov is the U.S. government's official web portal to all federal, state and local government web resources and services.